Regional Weather Roundup
Issued by NWS Northern Indiana

Home | Current Version | Previous Version | Text Only | Print | Product List | Glossary Off
Versions: 1 2 3 4 5 6 7 8 9 10 11 12 13 14 15 16 17 18 19 20 21 22 23 24 25 26 27 28 29 30 31 32 33 34 35 36 37 38 39 40 41 42 43 44 45 46 47 48 49 50

000
ASUS43 KIWX 250400
RWRIWX

KIWX WEATHER ROUNDUP
NATIONAL WEATHER SERVICE NORTHERN INDIANA
1200 AM EDT WED MAY 25 2016

NOTE: "FAIR" INDICATES FEW OR NO CLOUDS BELOW 12,000 FEET WITH NO
SIGNIFICANT WEATHER AND/OR OBSTRUCTIONS TO VISIBILITY.

* THESE STATIONS ARE NOT UNDER NWS QUALITY CONTROL. THEY ALSO MAY NOT
  REPORT WEATHER SUCH AS PRECIPITATION OR FOG.

INZ001>027-250500-
NORTHERN INDIANA

CITY           SKY/WX    TMP DP  RH WIND       PRES   REMARKS
SOUTH BEND     PTCLDY    70  50  49 SW6       30.02R
GOSHEN         CLEAR     68  49  50 S8        30.03R
ANGOLA*        CLEAR     63  54  72 CALM      30.04S
FORT WAYNE     PTCLDY    64  48  56 SW7       30.06R
PERU/GRISSOM   CLEAR     64  54  68 SW6       30.04S

$$
INZ028>050-250500-
CENTRAL INDIANA

CITY           SKY/WX    TMP DP  RH WIND       PRES   REMARKS
LAFAYETTE      CLEAR     67  55  65 CALM      30.03F
KOKOMO*        CLEAR     66  52  59 SW8       30.06R
MUNCIE*        CLEAR     71  51  49 S5        30.07R
INDIANAPOLIS   MOCLDY    71  54  54 S3        30.05S

$$
MIZ043>046-050>051-056>058-064>065-071>073-077>080-250500-
SOUTHWEST LOWER MICHIGAN

CITY           SKY/WX    TMP DP  RH WIND       PRES   REMARKS
BATTLE CREEK   CLEAR     67  50  54 S8        30.02S
BENTON HARBOR  PTCLDY    74  52  46 S6        29.99R
COLDWATER*     CLEAR     72  46  39 S5        30.03R
HILLSDALE*     CLEAR     68  43  40 S5        30.04S
HOLLAND        CLOUDY    69  53  56 S7        29.99R
GRAND RAPIDS   MOCLDY    70  54  56 S7        29.99R
KALAMAZOO      PTCLDY    69  50  50 S6        30.01F
STURGIS*       CLEAR     67  50  53 S5        30.02S
THREE RIVERS*  FAIR      68  51  53 S6        30.02S

$$
OHZ001>008-015>018-024>025-250500-
NORTHWEST OHIO

CITY           SKY/WX    TMP DP  RH WIND       PRES   REMARKS
DEFIANCE       CLEAR     67  45  45 CALM      30.04S
FINDLAY        CLEAR     62  45  53 S7        30.05S
TOLEDO EXPRESS CLEAR     66  44  45 S6        30.04R
TOLEDO METCALF CLEAR     68  43  40 SW6       30.04F
LIMA           CLEAR     65  46  50 S7        30.07S

$$
AND FOR LAKE MICHIGAN COASTAL AND OPEN LAKE BUOY OBSERVATIONS

STATION/POSITION TEMP    WIND        PRES    VSBY  WAVE
                 AIR SEA DIR/SP/G                  HT/PER
                 (F)     (DEG/KT/KT) (MB)    (MI)  (FT/S)
CALUMET HARBOR    78     180/  8/ 14 1014.7R
MICHIGAN CITY     77     170/ 13/ 16   N/A
BURNS HARBOR      76     190/ 10/ 13 1015.9R
SAINT JOSEPH      77     160/  8/ 17 1016.3R
SOUTH LAKE BUOY   62 49  300/  6/ 12 1014.5          0
4 MI NW BRIDGMAN  68 60  180/  8/ 10   N/A           1
MICHIGAN CITY     67 59  190/  8/  8   N/A           1

$$
&&




USA.gov is the U.S. government's official web portal to all federal, state and local government web resources and services.